Cumberland, WV

12:19 PM EST on December 11, 2019 (GMT -0500)
Greater Cumberland Regional

Weather History for KCBE - November, 2019

Change the Weather History Date:

Wednesday, November 13, 2019

  Actual Average (KMRB) Record (KMRB)
Temperature  
Mean Temperature 26 °F -  
Max Temperature 34 °F 53 °F 80 °F (1931)
Min Temperature 17 °F 34 °F 18 °F (1950)
Degree Days  
Heating Degree Days 40    
Moisture  
Dew Point 10 °F    
Average Humidity 53    
Maximum Humidity 77    
Minimum Humidity 34    
Precipitation  
Precipitation 0.00 in - - ()
Sea Level Pressure  
Sea Level Pressure 30.40 in    
Wind  
Wind Speed 5 mph ()    
Max Wind Speed 13 mph    
Max Gust Speed -    
Visibility 9.8 miles    
Events Snow    
Averages and records for this station are not official NWS values.
T = Trace of Precipitation, MM = Missing Value Source: Averaged Metar Reports

Daily Weather History Graph

Daily Weather History Graph

Search for Another Location

Airport or City:

Astronomy

Nov. 13, 2019 Rise Set
Actual Time 6:56 AM EST 5:01 PM EST
Civil Twilight 6:28 AM EST 5:30 PM EST
Nautical Twilight 5:55 AM EST 6:02 PM EST
Astronomical Twilight 5:23 AM EST 6:34 PM EST
Moon 6:03 PM EST (11/13) 7:48 AM EST (11/13)
Length of Visible Light 11h 01m
Length of Day
10h 04m
Full, 99% of the Moon is Illuminated
Nov 13
Full
Nov 19
Last Quarter
Nov 26
New
Dec 4
First Quarter
Dec 12
Full

Hourly Weather History & Observations

Time (EST) Temp. Windchill Dew Point Humidity Pressure Visibility Wind Dir Wind Speed Gust Speed Precip Events Conditions
12:00 AM 23.4 °F 13.5 °F 10.8 °F 59% 30.35 in 10.0 mi NNW 9.2 mph - N/A Snow Light Snow
12:20 AM 23.4 °F 12.8 °F 10.0 °F 57% 30.35 in 10.0 mi NW 10.4 mph - N/A   Mostly Cloudy
12:40 AM 23.5 °F 13.7 °F 10.4 °F 57% 30.35 in 10.0 mi NW 9.2 mph - N/A   Overcast
1:00 AM 22.8 °F 15.5 °F 10.0 °F 58% 30.35 in 10.0 mi NW 5.8 mph - N/A   Mostly Cloudy
1:20 AM 22.8 °F 10.9 °F 10.2 °F 59% 30.36 in 10.0 mi NW 12.7 mph - N/A   Mostly Cloudy
1:40 AM 22.5 °F 12.4 °F 9.5 °F 58% 30.37 in 10.0 mi WNW 9.2 mph - N/A   Mostly Cloudy
2:00 AM 21.9 °F 9.8 °F 9.3 °F 58% 30.37 in 10.0 mi WNW 12.7 mph - N/A   Scattered Clouds
2:20 AM 21.6 °F 12.1 °F 9.1 °F 59% 30.37 in 10.0 mi NW 8.1 mph - N/A   Scattered Clouds
2:40 AM 21.4 °F 11.9 °F 9.1 °F 59% 30.37 in 10.0 mi NW 8.1 mph - N/A   Scattered Clouds
3:00 AM 21.4 °F 11.9 °F 8.8 °F 58% 30.37 in 10.0 mi NNW 8.1 mph - N/A   Clear
3:20 AM 20.8 °F 13.2 °F 9.1 °F 61% 30.38 in 10.0 mi NNW 5.8 mph - N/A   Clear
3:40 AM 21.0 °F 12.4 °F 9.1 °F 60% 30.38 in 10.0 mi NW 6.9 mph - N/A   Scattered Clouds
4:00 AM 20.7 °F 13.0 °F 9.3 °F 62% 30.38 in 10.0 mi WNW 5.8 mph - N/A   Clear
4:20 AM 20.5 °F 12.8 °F 9.7 °F 63% 30.39 in 10.0 mi NW 5.8 mph - N/A   Clear
4:40 AM 20.5 °F 11.7 °F 9.9 °F 64% 30.40 in 10.0 mi NW 6.9 mph - N/A   Clear
5:00 AM 20.1 °F 11.3 °F 10.2 °F 66% 30.41 in 10.0 mi WNW 6.9 mph - N/A   Clear
5:20 AM 19.9 °F 14.9 °F 9.9 °F 65% 30.41 in 10.0 mi WNW 3.5 mph - N/A   Scattered Clouds
5:40 AM 20.1 °F 12.3 °F 9.9 °F 64% 30.41 in 10.0 mi WNW 5.8 mph - N/A   Clear
6:00 AM 20.5 °F 11.7 °F 10.2 °F 65% 30.42 in 10.0 mi NW 6.9 mph - N/A   Clear
6:20 AM 20.3 °F - 10.0 °F 65% 30.43 in 10.0 mi Calm Calm - N/A   Clear
6:40 AM 19.4 °F 11.5 °F 10.4 °F 68% 30.43 in 10.0 mi NW 5.8 mph - N/A   Scattered Clouds
7:00 AM 19.6 °F 13.0 °F 10.2 °F 67% 30.43 in 10.0 mi NW 4.6 mph - N/A   Clear
7:20 AM 19.8 °F 14.7 °F 10.0 °F 66% 30.44 in 10.0 mi NNE 3.5 mph - N/A   Clear
7:40 AM 17.6 °F - 11.5 °F 77% 30.45 in 10.0 mi Calm Calm - N/A   Clear
8:00 AM 20.8 °F - 10.0 °F 63% 30.45 in 10.0 mi Calm Calm - N/A   Clear
8:20 AM 21.7 °F 15.5 °F 10.8 °F 63% 30.46 in 10.0 mi NW 4.6 mph - N/A   Clear
8:40 AM 22.3 °F - 10.6 °F 61% 30.47 in 10.0 mi Calm Calm - N/A   Clear
9:00 AM 23.9 °F 16.8 °F 11.3 °F 59% 30.47 in 10.0 mi WSW 5.8 mph - N/A   Clear
9:20 AM 24.1 °F 16.0 °F 10.6 °F 56% 30.47 in 10.0 mi WNW 6.9 mph - N/A   Clear
9:40 AM 25.9 °F 21.7 °F 11.3 °F 54% 30.47 in 10.0 mi West 3.5 mph - N/A   Clear
10:00 AM 25.9 °F - 10.8 °F 53% 30.48 in 10.0 mi Calm Calm - N/A   Scattered Clouds
10:20 AM 26.8 °F 21.4 °F 11.1 °F 52% 30.48 in 10.0 mi NE 4.6 mph - N/A   Scattered Clouds
10:40 AM 27.3 °F 23.4 °F 10.6 °F 49% 30.47 in 10.0 mi NE 3.5 mph - N/A   Scattered Clouds
11:20 AM 30.2 °F 21.3 °F 9.9 °F 43% 30.46 in 10.0 mi North 10.4 mph - N/A   Clear
11:40 AM 30.6 °F 24.7 °F 10.0 °F 42% 30.45 in 10.0 mi North 5.8 mph - N/A   Clear
12:00 PM 30.7 °F 27.3 °F 9.0 °F 40% 30.44 in 10.0 mi WNW 3.5 mph - N/A   Clear
12:20 PM 32.0 °F 24.8 °F 8.6 °F 38% 30.44 in 10.0 mi NNE 8.1 mph - N/A   Clear
12:40 PM 32.4 °F 25.3 °F 8.8 °F 37% 30.43 in 10.0 mi NW 8.1 mph - N/A   Clear
1:00 PM 32.7 °F 27.3 °F 8.8 °F 37% 30.41 in 10.0 mi North 5.8 mph - N/A   Clear
1:20 PM 31.8 °F 25.4 °F 7.3 °F 36% 30.40 in 10.0 mi ENE 6.9 mph - N/A   Scattered Clouds
1:40 PM 32.4 °F - 7.5 °F 35% 30.40 in 10.0 mi Calm Calm - N/A   Clear
2:00 PM 32.5 °F - 7.3 °F 35% 30.39 in 10.0 mi Calm Calm - N/A   Scattered Clouds
2:20 PM 33.1 °F 30.0 °F 7.7 °F 35% 30.39 in 10.0 mi SSW 3.5 mph - N/A   Scattered Clouds
2:40 PM 33.8 °F 30.8 °F 8.6 °F 35% 30.38 in 10.0 mi WNW 3.5 mph - N/A   Clear
3:00 PM 34.0 °F 29.8 °F 8.1 °F 34% 30.37 in 10.0 mi ENE 4.6 mph - N/A   Clear
3:20 PM 32.7 °F - 7.3 °F 35% 30.38 in 10.0 mi Calm Calm - N/A   Clear
3:40 PM 33.3 °F 30.2 °F 7.3 °F 34% 30.38 in 10.0 mi South 3.5 mph - N/A   Clear
4:00 PM 32.9 °F 29.8 °F 7.5 °F 35% 30.37 in 10.0 mi SSW 3.5 mph - N/A   Clear
4:20 PM 33.3 °F 28.9 °F 8.4 °F 35% 30.38 in 10.0 mi South 4.6 mph - N/A   Clear
4:40 PM 32.0 °F 26.4 °F 9.5 °F 39% 30.38 in 10.0 mi SSE 5.8 mph - N/A   Clear
5:00 PM 31.1 °F - 9.5 °F 41% 30.39 in 10.0 mi Calm Calm - N/A   Clear
5:20 PM 30.7 °F - 9.5 °F 41% 30.39 in 10.0 mi Calm Calm - N/A   Clear
5:40 PM 28.4 °F 24.6 °F 10.8 °F 48% 30.38 in 10.0 mi East 3.5 mph - N/A   Clear
6:00 PM 29.3 °F - 9.7 °F 44% 30.38 in 10.0 mi Calm Calm - N/A   Clear
6:20 PM 28.9 °F - 10.6 °F 46% 30.39 in 10.0 mi Calm Calm - N/A   Clear
6:40 PM 29.1 °F - 9.9 °F 45% 30.38 in 10.0 mi Calm Calm - N/A   Clear
7:00 PM 28.4 °F - 10.8 °F 48% 30.38 in 10.0 mi Calm Calm - N/A   Clear
7:20 PM 27.9 °F - 11.3 °F 50% 30.38 in 10.0 mi Calm Calm - N/A   Clear
7:40 PM 28.4 °F - 11.3 °F 49% 30.37 in 10.0 mi Calm Calm - N/A   Clear
8:00 PM 28.0 °F - 11.8 °F 51% 30.38 in 10.0 mi Calm Calm - N/A   Clear
8:20 PM 26.2 °F - 13.6 °F 59% 30.38 in 10.0 mi Calm Calm - N/A   Clear
8:40 PM 26.4 °F - 12.4 °F 55% 30.38 in 7.0 mi Calm Calm - N/A   Clear
9:00 PM 26.1 °F - 13.5 °F 59% 30.37 in 5.0 mi Calm Calm - N/A   Haze
9:20 PM 26.6 °F - 13.5 °F 58% 30.37 in 10.0 mi Calm Calm - N/A   Clear
9:40 PM 26.4 °F - 12.7 °F 56% 30.37 in 10.0 mi Calm Calm - N/A   Clear
10:00 PM 25.7 °F - 12.0 °F 56% 30.37 in 10.0 mi Calm Calm - N/A   Clear
10:20 PM 25.9 °F - 12.4 °F 57% 30.37 in 10.0 mi Calm Calm - N/A   Clear
10:40 PM 25.7 °F - 13.6 °F 60% 30.37 in 10.0 mi Calm Calm - N/A   Clear
11:20 PM 23.7 °F - 14.4 °F 67% 30.36 in 4.0 mi Calm Calm - N/A   Haze
11:40 PM 24.1 °F - 15.3 °F 69% 30.36 in 10.0 mi Calm Calm - N/A   Clear